Flag for U.S.A. Weather past 2 weeks in Modesto, California, U.S.A.

Now
79 °F

Sunny.


Feels Like: 79 °F
Forecast: 56 / 85 °F
Wind: 12 mph from Northwest

Location: Modesto City-County-Sham Field

Current Time: May 25, 2015 at 7:29:06 PM

Latest Report: May 25, 2015 at 6:53 PM


Visibility: 10 mi

Pressure: 29.84 "Hg

Humidity: 35%

Dew point: 49 °F

Location of ModestoLocation

Historic Weather in Modesto — Graph

°F

Modesto temperature yesterday

Maximum temperature yesterday: 85 °F (at 4:53 PM)
Minimum temperature yesterday: 54 °F (at 5:53 AM)
Average temperature yesterday: 69 °F

Past Weeks' High & Low Weather Summary

 TemperatureHumidityPressure
High85 °F (May 24, 4:53 PM)90% (May 16, 5:53 AM)30.08 "Hg (May 16, 5:53 AM)
Low48 °F (May 12, 5:53 AM)16% (May 10, 6:53 PM)29.77 "Hg (May 14, 1:53 PM)
Average64 °F53%29.93 "Hg
* Reported May 10 5:53 PM — May 25 5:53 PM, Modesto, Weather by CustomWeather, © 2015

Note: Actual official high and low records may vary slightly from our data, if they occured in-between our weather recording intervals... More about our weather records

Advertising

Modesto weather history for previous 24 hours

 ConditionsComfort  
Time TempWeatherWind HumidityBarometerVisibility
5:53 PM
Mon, May 25
83 °FSunny.10 mph31%29.83 "Hg10 mi
4:53 PM84 °FSunny.10 mph30%29.83 "Hg10 mi
3:53 PM84 °FSunny.N/A29%29.85 "Hg10 mi
2:53 PM82 °FSunny.8 mph32%29.86 "Hg10 mi
1:53 PM81 °FSunny.8 mph30%29.88 "Hg10 mi
12:53 PM78 °FSunny.No wind35%29.90 "Hg10 mi
11:53 AM74 °FSunny.6 mph41%29.91 "Hg10 mi
10:53 AM71 °FSunny.5 mph47%29.91 "Hg10 mi
9:53 AM67 °FSunny.8 mph55%29.93 "Hg10 mi
8:53 AM64 °FSunny.7 mph61%29.92 "Hg10 mi
7:53 AM59 °FSunny.8 mph72%29.91 "Hg10 mi
6:53 AM56 °FSunny.9 mph77%29.90 "Hg10 mi
5:53 AM55 °FClear.7 mph80%29.90 "Hg10 mi
4:53 AM56 °FClear.7 mph77%29.88 "Hg10 mi
3:53 AM56 °FClear.6 mph77%29.88 "Hg10 mi
2:53 AM57 °FClear.7 mph74%29.89 "Hg10 mi
1:53 AM58 °FClear.9 mph72%29.89 "Hg10 mi
12:53 AM58 °FClear.8 mph72%29.90 "Hg10 mi
11:53 PM
Sun, May 24
59 °FClear.10 mph72%29.90 "Hg10 mi
10:53 PM60 °FClear.10 mph67%29.90 "Hg10 mi
9:53 PM63 °FClear.8 mph60%29.89 "Hg10 mi
8:53 PM71 °FSunny.10 mph45%29.86 "Hg10 mi
7:53 PM78 °FSunny.8 mph35%29.85 "Hg10 mi
Weather by CustomWeather, © 2015

See weather overviewHow to use our weather pages